Russell, KS

8:12 PM CDT on August 31, 2016 (GMT -0500)
Russell Municipal

Weather History for KRSL - June, 2013

Change the Weather History Date:

Tuesday, June 11, 2013

  Actual Average Record
Temperature  
Mean Temperature 88 °F -  
Max Temperature 102 °F 84 °F 106 °F (1953)
Min Temperature 75 °F 60 °F 47 °F (1975)
Cooling Degree Days 24    
Growing Degree Days 38 (Base 50)    
Moisture  
Dew Point 56 °F    
Average Humidity 35    
Maximum Humidity 50    
Minimum Humidity 22    
Precipitation  
Precipitation 0.00 in - - ()
Sea Level Pressure  
Sea Level Pressure 29.65 in    
Wind  
Wind Speed 22 mph (SSW)    
Max Wind Speed 36 mph    
Max Gust Speed 68 mph    
Visibility 10 miles    
Events      
Averages and records for this station are not official NWS values.
T = Trace of Precipitation, MM = Missing Value Source: NWS Daily Summary

Daily Weather History Graph

Daily Weather History Graph

Search for Another Location

Airport or City:

Trip Planner

Search our weather history database for the weather conditions in past years. The results will help you decide how hot, cold, wet, or windy it might be!

Date:

Astronomy

Jun. 11, 2013 Rise Set
Actual Time 6:09 AM CDT 9:00 PM CDT
Civil Twilight 5:37 AM CDT 9:32 PM CDT
Nautical Twilight 4:57 AM CDT 10:12 PM CDT
Astronomical Twilight 4:11 AM CDT 10:58 PM CDT
Moon 8:52 AM CDT (6/11) 11:05 PM CDT (6/11)
Length of Visible Light 15h 55m
Length of Day
14h 51m
Waxing Crescent, 8% of the Moon is Illuminated
Jun 11
Waxing Crescent
Jun 16
First Quarter
Jun 23
Full
Jun 29
Last Quarter
Jul 8
New

Hourly Weather History & Observations

Time (CDT) Temp. Heat Index Dew Point Humidity Pressure Visibility Wind Dir Wind Speed Gust Speed Precip Events Conditions
12:53 AM 84.0 °F 84.0 °F 60.1 °F 44% 29.68 in 10.0 mi South 19.6 mph 27.6 mph N/A   Clear
1:53 AM 82.0 °F 82.1 °F 59.0 °F 45% 29.69 in 10.0 mi SSW 19.6 mph - N/A   Clear
2:53 AM 80.1 °F 80.4 °F 57.0 °F 45% 29.69 in 10.0 mi SSW 19.6 mph 27.6 mph N/A   Clear
3:53 AM 78.1 °F - 55.9 °F 46% 29.68 in 10.0 mi SSW 17.3 mph - N/A   Clear
4:53 AM 77.0 °F - 55.9 °F 48% 29.70 in 10.0 mi SSW 12.7 mph - N/A   Clear
5:53 AM 75.0 °F - 55.0 °F 50% 29.71 in 10.0 mi SSW 9.2 mph - N/A   Clear
6:53 AM 75.9 °F - 55.0 °F 48% 29.70 in 10.0 mi SSW 16.1 mph - N/A   Clear
7:53 AM 81.0 °F 80.5 °F 54.0 °F 39% 29.70 in 10.0 mi SSW 20.7 mph 67.9 mph N/A   Clear
8:53 AM 84.9 °F 83.2 °F 53.1 °F 33% 29.70 in 10.0 mi SW 24.2 mph 31.1 mph N/A   Clear
9:53 AM 89.1 °F 86.9 °F 54.0 °F 30% 29.70 in 10.0 mi SSW 23.0 mph 31.1 mph N/A   Clear
10:53 AM 93.9 °F 92.0 °F 55.0 °F 27% 29.68 in 10.0 mi SSW 24.2 mph 35.7 mph N/A   Clear
11:53 AM 98.1 °F 96.4 °F 55.0 °F 24% 29.67 in 10.0 mi SSW 19.6 mph 34.5 mph N/A   Clear
12:53 PM 100.0 °F 98.8 °F 55.9 °F 23% 29.66 in 10.0 mi South 26.5 mph 35.7 mph N/A   Clear
1:53 PM 100.0 °F 98.8 °F 55.9 °F 23% 29.65 in 10.0 mi South 31.1 mph 39.1 mph N/A   Clear
2:53 PM 102.0 °F 101.1 °F 55.9 °F 22% 29.64 in 10.0 mi South 28.8 mph 38.0 mph N/A   Clear
3:53 PM 102.0 °F 101.1 °F 55.9 °F 22% 29.61 in 10.0 mi South 35.7 mph 44.9 mph N/A   Clear
4:53 PM 100.9 °F 100.0 °F 57.0 °F 23% 29.61 in 10.0 mi South 33.4 mph 44.9 mph N/A   Clear
5:53 PM 99.0 °F 98.1 °F 57.9 °F 25% 29.60 in 10.0 mi South 28.8 mph 42.6 mph N/A   Clear
6:53 PM 97.0 °F 95.7 °F 57.0 °F 26% 29.58 in 10.0 mi South 32.2 mph 43.7 mph N/A   Clear
7:53 PM 93.0 °F 91.7 °F 57.0 °F 30% 29.59 in 10.0 mi South 25.3 mph 35.7 mph N/A   Clear
8:53 PM 89.1 °F 88.0 °F 57.9 °F 35% 29.59 in 10.0 mi South 24.2 mph 31.1 mph N/A   Clear
9:53 PM 86.0 °F 85.7 °F 60.1 °F 41% 29.59 in 10.0 mi South 23.0 mph 29.9 mph N/A   Clear
10:53 PM 84.0 °F 83.8 °F 59.0 °F 43% 29.61 in 10.0 mi South 21.9 mph 31.1 mph N/A   Clear
11:53 PM 82.9 °F 82.4 °F 57.0 °F 41% 29.62 in 10.0 mi South 24.2 mph 29.9 mph N/A   Clear